Regional Weather Roundup
Issued by NWS

Home | Current Version | Previous Version | Text Only | Print | Product List | Glossary On
Versions: 1 2 3 4 5 6 7 8 9 10 11 12 13 14 15 16 17 18 19 20 21 22 23 24 25 26 27 28 29 30 31 32 33 34 35 36 37 38 39 40 41 42 43 44 45 46 47 48 49 50
000
ASUS43 KMPX 200210
RWRMN
WEATHER ROUNDUP FOR MINNESOTA
NATIONAL WEATHER SERVICE TWIN CITIES/CHANHASSEN MN
900 PM CDT THU OCT 19 2017


NOTE: "FAIR" INDICATES FEW OR NO CLOUDS BELOW 12,000 FEET WITH NO
SIGNIFICANT WEATHER AND/OR OBSTRUCTIONS TO VISIBILITY. N/A MEANS
CURRENT SKY AND/OR WEATHER CONDITIONS ARE NOT AVAILABLE.

MNZ060>063-068>070-200300-
   Twin Cities Metro

CITY           SKY/WX    TMP DP  RH WIND       PRES   REMARKS
TWIN CITIES    CLEAR     62  39  42 S8        29.94S
ST PAUL        CLEAR     58  39  49 SE8       29.95S
CRYSTAL        CLEAR     62  36  37 S9        29.92S
BLAINE         PTCLDY    63  37  39 S10       29.93S
LAKEVILLE      CLEAR     57  39  51 S6        29.95R
EDEN PRAIRIE   CLEAR     60  39  45 S10       29.92S
SOUTH ST PAUL  CLEAR     61  36  39 S6        29.94S
LAKE ELMO      FAIR      59  37  44 S9        29.96S
$$
MNZ001>005-007-008-013>017-022>024-027-028-200300-
   Northwest Minnesota

CITY           SKY/WX    TMP DP  RH WIND       PRES   REMARKS
BEMIDJI        CLEAR     59  38  46 S7        29.80S
HALLOCK        CLEAR     52  34  50 S10       29.70S
ROSEAU         CLEAR     52  43  71 S8        29.73S
WARROAD        CLEAR     55  43  62 CALM      29.74S
THIEF RVR FALL CLEAR     56  40  55 S8        29.75F
CROOKSTON      CLEAR     57  39  51 S12       29.74S
FOSSTON        CLEAR     57  39  51 S12       29.78S
DETROIT LAKES  CLEAR     59  43  55 SE7       29.82S
MOORHEAD       CLEAR     57  45  62 SE7       29.78S
PARK RAPIDS    CLEAR     56  41  57 S9        29.83S
MAHNOMEN       FAIR      59  42  53 S7        29.78S
$$
MNZ006-009>011-018-025>026-200300-
   North Central Minnesota

CITY           SKY/WX    TMP DP  RH WIND       PRES   REMARKS
BAUDETTE       CLEAR     55  39  54 S8        29.75F
FLAG ISLAND    CLEAR     52  46  82 S7        29.72S
INTL FALLS     CLEAR     54  35  48 VRB3      29.80S
WASKISH        CLEAR     59  37  44 CALM      29.79S
BIG FORK       CLEAR     57  36  44 S6        29.83F
LONGVILLE      PTCLDY    59  37  44 S8        29.85S
GRAND RAPIDS   CLEAR     58  36  43 S9        29.88F
CRANE LAKE     CLEAR     45  36  70 S3        29.85F
ORR            CLEAR     55  30  38 S7        29.82F
COOK           CLEAR     61  34  36 S6        29.86F
WALKER         FAIR      61  37  41 S7        29.83S
$$
MNZ012-019>021-037-200300-
   Northeast Minnesota

CITY           SKY/WX    TMP DP  RH WIND       PRES   REMARKS
DULUTH         CLEAR     60  35  39 SW14      29.91S
ELY            CLEAR     57  30  35 S7        29.88F
HIBBING        CLEAR     43  34  70 SE3       29.88S
EVELETH        CLEAR     42  35  75 CALM      29.90S HAZE
DULUTH HARBOR  CLEAR     57  41  54 SW6       29.91S
TWO HARBORS    CLEAR     48  39  71 CALM      29.90S
SILVER BAY     CLEAR     43  36  75 CALM      29.90S
GRAND MARAIS     N/A     44  38  79 CALM      29.91F
G MARAIS ARPRT CLEAR     48  27  43 S5        29.94S
$$
MNZ029>031-032-039>041-046>048-054>057-064-200300-
   West Central Minnesota

CITY           SKY/WX    TMP DP  RH WIND       PRES   REMARKS
FERGUS FALLS   CLEAR     57  46  67 S9        29.82S
WHEATON        CLEAR     64  46  52 SE12G17   29.81F
MORRIS         CLEAR     61  46  59 S8        29.82F
ALEXANDRIA     CLEAR     61  44  53 S13       29.86S
ELBOW LAKE     FAIR      57  46  67 E6        29.83S
WADENA         CLEAR     54  41  62 SE6       29.84S
GLENWOOD       CLEAR     61  45  55 S9        29.87F
APPLETON       CLEAR     63  45  51 S6        29.83S
BENSON         CLEAR     61  46  59 S7        29.86S
ORTONVILLE     CLEAR     59  46  63 N6        29.82S
MADISON        CLEAR     63  48  59 S8        29.83F
WILLMAR        FAIR      61  46  59 SE7       29.88S
$$
MNZ033>034-036-042>043-049>051-058-059-200300-
   Central Minnesota

CITY           SKY/WX    TMP DP  RH WIND       PRES   REMARKS
ST CLOUD       CLEAR     55  41  59 SE8       29.89F
SAUK CENTRE    FAIR      52  42  68 SE9       29.88F
PAYNESVILLE    CLEAR     60  44  54 S8        29.88F
AITKIN         CLEAR     45  36  70 SE3       29.88S
PINE RIVER     CLEAR     52  37  58 S5        29.89F
BRAINERD       CLEAR     57  38  48 S8        29.88S
STAPLES        CLEAR     57  39  51 SE6       29.86S
LONG PRAIRIE   FAIR      55  41  58 SE9       29.88S
LITTLE FALLS   CLEAR     55  30  38 SE6       29.89S
LITCHFIELD     CLEAR     63  45  51 SE5       29.90S
BUFFALO        CLEAR     60  38  43 SE6       29.92F
MAPLE LAKE     CLEAR     60  42  51 S5        29.91F
HUTCHINSON     CLEAR     58  45  60 SE3       29.91F
$$
MNZ037-044-045-052-053-200300-
   East Central Minnesota

CITY           SKY/WX    TMP DP  RH WIND       PRES   REMARKS
PRINCETON      CLEAR     61  39  44 SE8       29.91S
MORA           CLEAR     54  36  50 SE3       29.93S
CAMBRIDGE      CLEAR     63  43  48 SE7       29.92S
RUSH CITY      MOCLDY    58  37  45 S6        29.93S
MOOSE LAKE     PTCLDY    52  36  54 CALM      29.89S
HINCKLEY       FAIR      55  37  50 S5        29.92S
CLOQUET        CLEAR     57  32  38 S5        29.91S
MCGREGOR       CLOUDY    55  36  47 S6        29.89F
$$
MNZ071>073-080-081-089-090-097-098-200300-
   Southwest Minnesota

CITY           SKY/WX    TMP DP  RH WIND       PRES   REMARKS
MONTEVIDEO     CLEAR     59  45  58 SW3       29.85S
GRANITE FALLS  CLEAR     61  48  61 SE12      29.86F
CANBY          CLEAR     69  48  47 SW15G24   29.83F
MARSHALL       CLEAR     64  48  56 S17G25    29.85F
REDWOOD FALLS  CLEAR     57  44  62 SE8       29.88F
OLIVIA         CLEAR     59  45  58 S10       29.87S
PIPESTONE      CLEAR     63  46  55 S12G17    29.90S
WORTHINGTON    CLEAR     61  49  64 S9        29.93F
JACKSON        CLEAR     61  46  59 S13       29.95S
TRACY          CLEAR     65  49  56 S14G21    29.87F
SLAYTON        CLEAR     57  48  71 S9        29.92S
$$
MNZ065>067-074>077-082>085-091>093-200300-
   South Central Minnesota

CITY           SKY/WX    TMP DP  RH WIND       PRES   REMARKS
MANKATO        CLEAR     60  42  51 S8        29.94S
NEW ULM        CLEAR     61  45  55 S13G21    29.91S
ST JAMES       CLEAR     61  46  59 S12       29.94S
FAIRMONT       CLEAR     58  47  66 S13       29.95F
GLENCOE        CLEAR     62  42  47 S7        29.91S
FARIBAULT      CLEAR     61  39  44 S10G16    29.96S
OWATONNA       CLEAR     63  39  42 S16G22    29.97S
WASECA         CLEAR     57  39  51 S8        29.97S
$$
MNZ078>079-086>088-094>096-200300-
   Southeast Minnesota

CITY           SKY/WX    TMP DP  RH WIND       PRES   REMARKS
ROCHESTER      CLEAR     58  38  47 S14       30.01F
RED WING       CLEAR     63  30  29 SE9       29.96F
STANTON        CLEAR     61  38  42 S10       29.94F
DODGE CENTER   CLEAR     57  37  47 S14       29.99S
WINONA         CLEAR     52  43  71 CALM      30.02S
AUSTIN         CLEAR     59  39  47 S8        30.00S
PRESTON        CLEAR     56  36  46 S9        30.04R
$$
ABBREVIATIONS USED IN REMARKS
   TC - TEMPERATURES IN CELSIUS
  WCI - WIND CHILL INDEX
   HX - HEAT INDEX
  VSB - VISIBILITY
$$




USA.gov is the U.S. government's official web portal to all federal, state and local government web resources and services.